Weather History for Rifle, CO

Change the Weather History Date:

Thursday, June 20, 2013

  Actual Average Record
Temperature  
Mean Temperature 68 °F 68 °F  
Max Temperature 90 °F 87 °F 100 °F (1936)
Min Temperature 45 °F 49 °F 34 °F (1924)
Degree Days  
Heating Degree Days 0 1  
Month to date heating degree days 13 54  
Since 1 June heating degree days 13 54  
Since 1 July heating degree days 6694 6620  
Cooling Degree Days 3 4  
Month to date cooling degree days 73 47  
Year to date cooling degree days 80 54  
Since 1 June cooling degree days 73 47  
Growing Degree Days 17 (Base 50)    
Moisture  
Dew Point 19 °F    
Average Humidity 26    
Maximum Humidity 45    
Minimum Humidity 6    
Precipitation  
Precipitation 0.00 in 0.03 in 0.89 in (1967)
Month to date precipitation T 0.79  
Year to date precipitation 3.99 6.21  
Sea Level Pressure  
Sea Level Pressure 29.75 in    
Wind  
Wind Speed 7 mph (SW)    
Max Wind Speed 26 mph    
Max Gust Speed 41 mph    
Visibility 10 miles    
Events      
T = Trace of Precipitation, MM = Missing Value Source: NWS Daily Summary

Daily Weather History Graph

Daily Weather History Graph

Search for Another Location

Airport:

Trip Planner

Search our weather history database for the weather conditions in past years. The results will help you decide how hot, cold, wet, or windy it might be!

Date:

Astronomy

Jun. 20, 2013 Rise Set
Actual Time 5:43 AM MDT 8:41 PM MDT
Civil Twilight 5:11 AM MDT 9:14 PM MDT
Nautical Twilight 4:29 AM MDT 9:55 PM MDT
Astronomical Twilight 3:42 AM MDT 10:43 PM MDT
Moon 5:47 PM MDT (6/20) 3:11 AM MDT (6/20)
Length of Visible Light 16h 02m
Length of Day
14h 57m
Waxing Gibbous, 89% of the Moon is Illuminated
Jun 20
Waxing Gibbous
Jun 23
Full
Jun 29
Last Quarter
Jul 8
New
Jul 15
First Quarter

Hourly Weather History & Observations

Time (MDT) Temp. Windchill Dew Point Humidity Pressure Visibility Wind Dir Wind Speed Gust Speed Precip Events Conditions
12:53 AM 64.9 °F - 15.1 °F 15% 29.65 in 10.0 mi Calm Calm - N/A   Clear
1:53 AM 57.9 °F - 21.0 °F 24% 29.69 in 10.0 mi SE 3.5 mph - N/A   Clear
2:53 AM 55.9 °F - 18.0 °F 23% 29.71 in 10.0 mi Calm Calm - N/A   Clear
3:53 AM 53.1 °F - 19.0 °F 26% 29.73 in 10.0 mi NE 4.6 mph - N/A   Clear
4:53 AM 52.0 °F - 19.0 °F 27% 29.76 in 10.0 mi Variable 3.5 mph - N/A   Clear
5:53 AM 45.0 °F 43.5 °F 24.1 °F 44% 29.81 in 10.0 mi ENE 3.5 mph - N/A   Clear
6:53 AM 48.9 °F - 24.1 °F 38% 29.82 in 10.0 mi Calm Calm - N/A   Clear
7:53 AM 55.0 °F - 28.0 °F 35% 29.82 in 10.0 mi NNE 3.5 mph - N/A   Clear
8:53 AM 61.0 °F - 27.0 °F 27% 29.81 in 10.0 mi Variable 3.5 mph - N/A   Clear
9:53 AM 66.9 °F - 25.0 °F 21% 29.80 in 10.0 mi Variable 4.6 mph - N/A   Clear
10:53 AM 72.0 °F - 28.0 °F 20% 29.79 in 10.0 mi Variable 3.5 mph - N/A   Clear
11:53 AM 77.0 °F - 23.0 °F 13% 29.77 in 10.0 mi Calm Calm - N/A   Clear
12:53 PM 82.0 °F - 19.0 °F 10% 29.72 in 10.0 mi WNW 12.7 mph - N/A   Clear
1:53 PM 86.0 °F - 18.0 °F 8% 29.70 in 10.0 mi Variable 3.5 mph - N/A   Clear
2:37 PM 87.8 °F - 17.6 °F 8% 29.90 in 10.0 mi South 10.4 mph 23.0 mph N/A   Clear
2:53 PM 87.1 °F - 19.0 °F 8% 29.68 in 10.0 mi SSE 11.5 mph 21.9 mph N/A   Clear
3:53 PM 89.1 °F - 15.1 °F 6% 29.68 in 10.0 mi WSW 25.3 mph 33.4 mph N/A   Clear
4:53 PM 87.1 °F - 15.1 °F 7% 29.67 in 10.0 mi SSW 5.8 mph 21.9 mph N/A   Clear
5:30 PM 87.8 °F - 15.8 °F 7% 29.87 in 10.0 mi West 16.1 mph 24.2 mph N/A   Clear
5:40 PM 87.8 °F - 15.8 °F 7% 29.87 in 10.0 mi West 15.0 mph 23.0 mph N/A   Clear
5:53 PM 88.0 °F - 15.1 °F 7% 29.68 in 10.0 mi SW 9.2 mph 26.5 mph N/A   Clear
6:53 PM 87.1 °F - 12.9 °F 6% 29.68 in 10.0 mi SW 19.6 mph 24.2 mph N/A   Clear
7:53 PM 84.9 °F - 14.0 °F 7% 29.66 in 10.0 mi SW 9.2 mph - N/A   Clear
8:53 PM 80.1 °F - 12.0 °F 8% 29.68 in 10.0 mi WSW 17.3 mph - N/A   Clear
9:53 PM 73.0 °F - 18.0 °F 12% 29.72 in 10.0 mi NNW 3.5 mph - N/A   Clear
10:53 PM 64.9 °F - 15.1 °F 15% 29.75 in 10.0 mi East 6.9 mph - N/A   Clear
11:53 PM 62.1 °F - 19.0 °F 19% 29.75 in 10.0 mi East 10.4 mph - N/A   Clear